Time,TemperatureF,DewpointF,PressureIn,WindDirection,WindDirectionDegrees,WindSpeedMPH,WindSpeedGustMPH,Humidity,HourlyPrecipIn,Conditions,Clouds,dailyrainin,SoftwareType,DateUTC
2013-01-01 00:06:00,40.6,40.0,30.03,SW,231,0.0,0.0,97,0.05,,,0.01,weatherlink.com 1.10,2013-01-01 06:06:00,
2013-01-01 00:21:00,40.7,40.0,30.02,SE,146,0.0,0.0,98,0.06,,,0.03,weatherlink.com 1.10,2013-01-01 06:21:00,
2013-01-01 00:36:00,40.7,40.0,30.02,SE,141,0.0,0.0,98,0.06,,,0.05,weatherlink.com 1.10,2013-01-01 06:36:00,
2013-01-01 00:51:00,40.8,40.0,30.02,South,184,0.0,0.0,98,0.06,,,0.06,weatherlink.com 1.10,2013-01-01 06:51:00,
2013-01-01 01:06:00,40.9,40.0,30.02,SW,226,0.0,0.0,98,0.06,,,0.07,weatherlink.com 1.10,2013-01-01 07:06:00,
2013-01-01 01:21:00,40.9,40.0,30.03,NNW,338,0.0,1.0,98,0.05,,,0.08,weatherlink.com 1.10,2013-01-01 07:21:00,
2013-01-01 01:36:00,40.8,40.0,30.01,NNE,22,0.0,1.0,98,0.03,,,0.08,weatherlink.com 1.10,2013-01-01 07:36:00,
2013-01-01 01:51:00,40.8,40.0,30.02,NNE,22,0.0,0.0,98,0.03,,,0.09,weatherlink.com 1.10,2013-01-01 07:51:00,
2013-01-01 02:06:00,40.9,40.0,30.04,NNE,22,0.0,0.0,98,0.03,,,0.10,weatherlink.com 1.10,2013-01-01 08:06:00,
2013-01-01 02:21:00,41.0,41.0,30.02,NE,49,0.0,0.0,98,0.03,,,0.11,weatherlink.com 1.10,2013-01-01 08:21:00,
2013-01-01 02:36:00,41.0,41.0,30.02,NE,48,0.0,0.0,98,0.04,,,0.12,weatherlink.com 1.10,2013-01-01 08:36:00,
2013-01-01 02:51:00,41.0,41.0,30.02,NE,49,0.0,0.0,98,0.03,,,0.12,weatherlink.com 1.10,2013-01-01 08:51:00,
2013-01-01 03:06:00,41.0,41.0,30.04,NE,48,0.0,0.0,98,0.02,,,0.12,weatherlink.com 1.10,2013-01-01 09:06:00,
2013-01-01 03:21:00,41.1,41.0,30.05,West,266,0.0,1.0,98,0.01,,,0.12,weatherlink.com 1.10,2013-01-01 09:21:00,
2013-01-01 03:36:00,41.0,41.0,30.05,NW,326,0.0,2.0,98,0.00,,,0.12,weatherlink.com 1.10,2013-01-01 09:36:00,
2013-01-01 03:51:00,40.9,40.0,30.04,NE,36,0.0,1.0,98,0.00,,,0.12,weatherlink.com 1.10,2013-01-01 09:51:00,
2013-01-01 04:06:00,40.9,40.0,30.03,NNE,19,0.0,0.0,98,0.00,,,0.12,weatherlink.com 1.10,2013-01-01 10:06:00,
2013-01-01 04:21:00,41.0,41.0,30.03,North,354,0.0,0.0,98,0.01,,,0.13,weatherlink.com 1.10,2013-01-01 10:21:00,
2013-01-01 04:36:00,41.0,41.0,30.04,NNW,342,1.0,1.0,98,0.01,,,0.13,weatherlink.com 1.10,2013-01-01 10:36:00,
2013-01-01 04:51:00,41.2,41.0,30.04,West,259,0.0,3.0,98,0.01,,,0.13,weatherlink.com 1.10,2013-01-01 10:51:00,
2013-01-01 05:06:00,41.2,41.0,30.05,SW,229,0.0,3.0,98,0.01,,,0.13,weatherlink.com 1.10,2013-01-01 11:06:00,
2013-01-01 05:21:00,41.1,41.0,30.06,NW,317,1.0,3.0,98,0.00,,,0.13,weatherlink.com 1.10,2013-01-01 11:21:00,
2013-01-01 05:37:00,41.0,41.0,30.06,ENE,70,0.0,3.0,98,0.00,,,0.13,weatherlink.com 1.10,2013-01-01 11:37:00,
2013-01-01 05:52:00,40.8,40.0,30.05,SE,136,0.0,5.0,98,0.00,,,0.13,weatherlink.com 1.10,2013-01-01 11:52:00,
2013-01-01 06:07:00,40.7,40.0,30.03,NW,311,2.0,3.0,98,0.00,,,0.13,weatherlink.com 1.10,2013-01-01 12:07:00,
2013-01-01 06:22:00,40.5,40.0,30.04,NNW,330,1.0,4.0,98,0.00,,,0.13,weatherlink.com 1.10,2013-01-01 12:22:00,
2013-01-01 06:37:00,40.3,40.0,30.04,NNW,342,1.0,3.0,98,0.00,,,0.13,weatherlink.com 1.10,2013-01-01 12:37:00,
2013-01-01 06:52:00,40.1,40.0,30.02,WNW,283,0.0,5.0,98,0.00,,,0.13,weatherlink.com 1.10,2013-01-01 12:52:00,
2013-01-01 07:07:00,40.1,40.0,30.05,NE,40,0.0,3.0,98,0.00,,,0.13,weatherlink.com 1.10,2013-01-01 13:07:00,
2013-01-01 07:22:00,40.1,40.0,30.05,NE,40,1.0,6.0,98,0.00,,,0.13,weatherlink.com 1.10,2013-01-01 13:22:00,
2013-01-01 07:37:00,40.0,40.0,30.06,NW,309,2.0,2.0,98,0.00,,,0.13,weatherlink.com 1.10,2013-01-01 13:37:00,
2013-01-01 07:52:00,40.0,40.0,30.06,WNW,295,1.0,4.0,98,0.00,,,0.13,weatherlink.com 1.10,2013-01-01 13:52:00,
2013-01-01 08:07:00,39.9,39.0,30.08,WNW,294,1.0,5.0,98,0.00,,,0.13,weatherlink.com 1.10,2013-01-01 14:07:00,
2013-01-01 08:22:00,39.8,39.0,30.08,East,81,1.0,6.0,98,0.00,,,0.13,weatherlink.com 1.10,2013-01-01 14:22:00,
2013-01-01 08:37:00,39.8,39.0,30.09,NNW,331,2.0,5.0,98,0.00,,,0.13,weatherlink.com 1.10,2013-01-01 14:37:00,
2013-01-01 08:52:00,40.0,40.0,30.09,NE,38,2.0,4.0,98,0.00,,,0.13,weatherlink.com 1.10,2013-01-01 14:52:00,
2013-01-01 09:07:00,39.9,39.0,30.10,NNW,348,1.0,5.0,97,0.00,,,0.13,weatherlink.com 1.10,2013-01-01 15:07:00,
2013-01-01 09:22:00,39.9,39.0,30.11,NNE,30,2.0,4.0,97,0.00,,,0.13,weatherlink.com 1.10,2013-01-01 15:22:00,
2013-01-01 09:37:00,40.0,39.0,30.11,NW,326,6.0,6.0,97,0.00,,,0.13,weatherlink.com 1.10,2013-01-01 15:37:00,
2013-01-01 09:52:00,40.2,39.0,30.11,NNE,29,3.0,5.0,96,0.00,,,0.13,weatherlink.com 1.10,2013-01-01 15:52:00,
2013-01-01 10:07:00,40.6,40.0,30.10,NE,54,1.0,4.0,96,0.00,,,0.13,weatherlink.com 1.10,2013-01-01 16:07:00,
2013-01-01 10:22:00,40.7,40.0,30.12,North,354,1.0,6.0,96,0.00,,,0.13,weatherlink.com 1.10,2013-01-01 16:22:00,
2013-01-01 10:38:00,41.0,40.0,30.11,WSW,256,1.0,7.0,95,0.00,,,0.13,weatherlink.com 1.10,2013-01-01 16:38:00,
2013-01-01 10:52:00,41.0,39.0,30.12,NNW,330,2.0,5.0,94,0.00,,,0.13,weatherlink.com 1.10,2013-01-01 16:52:00,
2013-01-01 11:07:00,41.0,39.0,30.12,North,11,2.0,7.0,93,0.00,,,0.13,weatherlink.com 1.10,2013-01-01 17:07:00,
2013-01-01 11:22:00,41.0,39.0,30.13,NNE,26,3.0,5.0,93,0.00,,,0.13,weatherlink.com 1.10,2013-01-01 17:22:00,
2013-01-01 11:37:00,41.0,39.0,30.12,NW,307,2.0,5.0,93,0.00,,,0.13,weatherlink.com 1.10,2013-01-01 17:37:00,
2013-01-01 11:52:00,41.1,39.0,30.11,NNE,19,1.0,4.0,93,0.01,,,0.14,weatherlink.com 1.10,2013-01-01 17:52:00,
2013-01-01 12:07:00,40.9,39.0,30.11,East,96,1.0,7.0,92,0.01,,,0.14,weatherlink.com 1.10,2013-01-01 18:07:00,
2013-01-01 12:22:00,40.8,39.0,30.10,NNW,340,1.0,10.0,92,0.01,,,0.14,weatherlink.com 1.10,2013-01-01 18:22:00,
2013-01-01 12:37:00,40.6,39.0,30.08,SE,131,2.0,6.0,93,0.01,,,0.14,weatherlink.com 1.10,2013-01-01 18:37:00,
2013-01-01 12:52:00,40.1,39.0,30.09,NE,50,3.0,6.0,94,0.00,,,0.14,weatherlink.com 1.10,2013-01-01 18:52:00,
2013-01-01 13:07:00,40.1,39.0,30.07,North,6,1.0,4.0,94,0.00,,,0.14,weatherlink.com 1.10,2013-01-01 19:07:00,
2013-01-01 13:22:00,40.0,39.0,30.07,NNE,15,3.0,4.0,94,0.00,,,0.14,weatherlink.com 1.10,2013-01-01 19:22:00,
2013-01-01 13:37:00,40.4,39.0,30.06,NNE,15,3.0,4.0,94,0.00,,,0.14,weatherlink.com 1.10,2013-01-01 19:37:00,
2013-01-01 13:52:00,40.4,39.0,30.05,NW,316,2.0,4.0,93,0.00,,,0.14,weatherlink.com 1.10,2013-01-01 19:52:00,
2013-01-01 14:07:00,40.1,39.0,30.06,NE,40,4.0,4.0,94,0.00,,,0.14,weatherlink.com 1.10,2013-01-01 20:07:00,
2013-01-01 14:22:00,39.9,38.0,30.07,NE,44,0.0,5.0,94,0.00,,,0.14,weatherlink.com 1.10,2013-01-01 20:22:00,
2013-01-01 14:37:00,39.8,38.0,30.07,WNW,283,1.0,4.0,94,0.00,,,0.14,weatherlink.com 1.10,2013-01-01 20:37:00,
2013-01-01 14:52:00,39.6,38.0,30.07,WNW,302,1.0,6.0,94,0.00,,,0.14,weatherlink.com 1.10,2013-01-01 20:52:00,
2013-01-01 15:07:00,39.5,38.0,30.08,West,281,1.0,6.0,94,0.00,,,0.14,weatherlink.com 1.10,2013-01-01 21:07:00,
2013-01-01 15:22:00,39.4,38.0,30.09,WSW,240,5.0,7.0,94,0.00,,,0.14,weatherlink.com 1.10,2013-01-01 21:22:00,
2013-01-01 15:37:00,39.3,38.0,30.10,NNW,347,1.0,7.0,93,0.00,,,0.14,weatherlink.com 1.10,2013-01-01 21:37:00,
2013-01-01 15:52:00,39.3,38.0,30.10,NW,321,0.0,6.0,93,0.00,,,0.14,weatherlink.com 1.10,2013-01-01 21:52:00,
2013-01-01 16:07:00,39.1,37.0,30.09,NW,316,4.0,6.0,93,0.00,,,0.14,weatherlink.com 1.10,2013-01-01 22:07:00,
2013-01-01 16:22:00,38.9,37.0,30.11,NW,321,5.0,6.0,93,0.00,,,0.14,weatherlink.com 1.10,2013-01-01 22:22:00,
2013-01-01 16:37:00,38.3,37.0,30.11,South,169,1.0,10.0,93,0.00,,,0.14,weatherlink.com 1.10,2013-01-01 22:37:00,
2013-01-01 16:52:00,37.5,36.0,30.11,WNW,302,2.0,8.0,94,0.00,,,0.14,weatherlink.com 1.10,2013-01-01 22:52:00,
2013-01-01 17:08:00,35.8,34.0,30.13,North,11,1.0,9.0,93,0.00,,,0.14,weatherlink.com 1.10,2013-01-01 23:08:00,
2013-01-01 17:23:00,34.8,34.0,30.14,SSW,197,0.0,8.0,95,0.00,,,0.14,weatherlink.com 1.10,2013-01-01 23:23:00,
2013-01-01 17:38:00,34.4,33.0,30.16,WSW,257,2.0,11.0,95,0.00,,,0.14,weatherlink.com 1.10,2013-01-01 23:38:00,
2013-01-01 17:53:00,33.9,33.0,30.16,West,276,3.0,7.0,96,0.00,,,0.14,weatherlink.com 1.10,2013-01-01 23:53:00,
2013-01-01 18:08:00,33.7,33.0,30.16,NE,46,1.0,6.0,96,0.00,,,0.14,weatherlink.com 1.10,2013-01-02 00:08:00,
2013-01-01 18:23:00,33.7,33.0,30.18,ENE,76,3.0,9.0,96,0.00,,,0.14,weatherlink.com 1.10,2013-01-02 00:23:00,
2013-01-01 18:38:00,33.8,33.0,30.17,WNW,301,2.0,7.0,96,0.00,,,0.14,weatherlink.com 1.10,2013-01-02 00:38:00,
2013-01-01 18:53:00,33.9,33.0,30.17,NW,318,1.0,3.0,96,0.00,,,0.14,weatherlink.com 1.10,2013-01-02 00:53:00,
2013-01-01 19:08:00,33.8,33.0,30.17,ENE,70,3.0,5.0,95,0.00,,,0.14,weatherlink.com 1.10,2013-01-02 01:08:00,
2013-01-01 19:23:00,33.5,32.0,30.18,WNW,291,2.0,6.0,94,0.00,,,0.14,weatherlink.com 1.10,2013-01-02 01:23:00,
2013-01-01 19:38:00,33.1,31.0,30.18,ENE,70,2.0,7.0,93,0.00,,,0.14,weatherlink.com 1.10,2013-01-02 01:38:00,
2013-01-01 19:53:00,32.8,31.0,30.18,NNW,330,4.0,6.0,93,0.00,,,0.14,weatherlink.com 1.10,2013-01-02 01:53:00,
2013-01-01 20:08:00,32.7,31.0,30.19,WNW,288,0.0,5.0,93,0.00,,,0.14,weatherlink.com 1.10,2013-01-02 02:08:00,
2013-01-01 20:23:00,32.5,31.0,30.18,NNE,32,0.0,4.0,93,0.00,,,0.14,weatherlink.com 1.10,2013-01-02 02:23:00,
2013-01-01 20:38:00,32.4,31.0,30.19,WNW,298,1.0,4.0,93,0.00,,,0.14,weatherlink.com 1.10,2013-01-02 02:38:00,
2013-01-01 20:53:00,32.2,30.0,30.18,NNW,338,1.0,3.0,93,0.00,,,0.14,weatherlink.com 1.10,2013-01-02 02:53:00,
2013-01-01 21:08:00,31.9,30.0,30.18,NNE,19,2.0,5.0,93,0.00,,,0.14,weatherlink.com 1.10,2013-01-02 03:08:00,
2013-01-01 21:23:00,31.7,30.0,30.19,WNW,301,3.0,6.0,93,0.00,,,0.14,weatherlink.com 1.10,2013-01-02 03:23:00,
2013-01-01 21:38:00,31.6,30.0,30.19,NE,41,0.0,6.0,93,0.00,,,0.14,weatherlink.com 1.10,2013-01-02 03:38:00,
2013-01-01 21:53:00,31.5,30.0,30.20,WNW,291,4.0,7.0,92,0.00,,,0.14,weatherlink.com 1.10,2013-01-02 03:53:00,
2013-01-01 22:08:00,31.3,29.0,30.20,North,356,1.0,5.0,91,0.00,,,0.14,weatherlink.com 1.10,2013-01-02 04:08:00,
2013-01-01 22:23:00,31.1,29.0,30.21,WNW,285,1.0,4.0,90,0.00,,,0.14,weatherlink.com 1.10,2013-01-02 04:23:00,
2013-01-01 22:38:00,31.0,29.0,30.21,NW,315,2.0,3.0,90,0.00,,,0.14,weatherlink.com 1.10,2013-01-02 04:38:00,
2013-01-01 22:53:00,30.6,28.0,30.21,NW,319,2.0,5.0,90,0.00,,,0.14,weatherlink.com 1.10,2013-01-02 04:53:00,
2013-01-01 23:08:00,30.4,28.0,30.22,WNW,283,1.0,5.0,90,0.00,,,0.14,weatherlink.com 1.10,2013-01-02 05:08:00,
2013-01-01 23:23:00,30.2,28.0,30.21,NNW,342,2.0,5.0,90,0.00,,,0.14,weatherlink.com 1.10,2013-01-02 05:23:00,
2013-01-01 23:38:00,30.0,28.0,30.21,NE,48,3.0,4.0,90,0.00,,,0.14,weatherlink.com 1.10,2013-01-02 05:38:00,
2013-01-01 23:53:00,29.7,27.0,30.21,NE,39,1.0,4.0,90,0.00,,,0.14,weatherlink.com 1.10,2013-01-02 05:53:00,